This is the latest recevied weather packets stored in our database for station/object EFTU. If no packets are shown the sender has not sent any weather packets the latest 10 day(s).
| Time | Temp. | Humidity | Pressure | Rain* | Wind** | Luminosity | Snow |
|---|---|---|---|---|---|---|---|
| 1777167996 | -0.56° C | 62% | 1002.2 hPa | - | - | - | - |
| 1777166797 | -0.56° C | 63% | 1002 hPa | - | - | - | - |
| 1777165596 | -0.56° C | 61% | 1001.8 hPa | - | - | - | - |
| 1777164396 | -0.56° C | 58% | 1001.5 hPa | - | - | - | - |
| 1777163195 | -0.56° C | 55% | 1001.3 hPa | - | - | - | - |
| 1777161997 | -0.56° C | 55% | 1001.1 hPa | - | - | - | - |
| 1777160796 | 0° C | 53% | 1000.9 hPa | - | - | - | - |
| 1777159595 | 0° C | 52% | 1000.7 hPa | - | - | - | - |
| 1777158396 | 0° C | 50% | 1000.6 hPa | - | - | - | - |
| 1777157196 | 0° C | 49% | 1000.5 hPa | - | - | - | - |
| 1777155995 | 0° C | 48% | 1000.3 hPa | - | - | - | - |
| 1777154795 | 0.56° C | 47% | 1000.1 hPa | - | - | - | - |
| 1777153595 | 0° C | 47% | 999.9 hPa | - | - | - | - |
| 1777152395 | 0.56° C | 46% | 999.7 hPa | - | - | - | - |
| 1777151195 | 0.56° C | 46% | 999.4 hPa | - | - | - | - |
| 1777149995 | 0° C | 47% | 999.2 hPa | - | - | - | - |
| 1777148794 | 0.56° C | 46% | 999.1 hPa | - | - | - | - |
| 1777147594 | 0.56° C | 49% | 998.9 hPa | - | - | - | - |
| 1777146394 | 0.56° C | 48% | 998.7 hPa | - | - | - | - |
| 1777145194 | 1.11° C | 46% | 998.3 hPa | - | - | - | - |
| 1777143994 | 1.67° C | 43% | 998 hPa | - | - | - | - |
| 1777142794 | 1.67° C | 44% | 997.7 hPa | - | - | - | - |
| 1777141594 | 2.22° C | 45% | 997.4 hPa | - | - | - | - |
| 1777140394 | 2.22° C | 47% | 997.1 hPa | - | - | - | - |
| 1777139194 | 2.22° C | 50% | 996.8 hPa | - | - | - | - |
* Rain since midnight (hover to see other rain measurements)
** Current wind speed in m/s (hover to see current wind gust speed)